Zurück zum Katalog

N1-ATLAS

AktivWissenschaftSSO
NORAD 68501·PAYLOAD·🇺🇸 United States

Gestartet Mar 30, 2026 von Vandenberg Space Force Base

Loading…

Nächste Überflüge (nächste 24 Stunden)

TLE

AktuellSource: Space-Track

Epoche: Sep 14, 2026, 19:51 UTC

1 68501U 26067CP  26257.82729272  .00001654  00000-0  16978-3 0  9992
2 68501  97.7729 214.7323 0004904  87.9969 272.1811 14.91739262 25081

Verfolge N1-ATLAS in Echtzeit mit AllMySat

Download on the App Store